VTREG BGGH-BIRK

Flight info

Callsign VTREG
Flight time N/A
Altitude 27000
Route EVULO1A EVULO Y47 DA UT592 NONRO/M047F290 DCT INGAN
Aircraft SF50/L-BDGRSWY/LB2U2

Departure

Time N/A
Airport Nuuk International Airport (BGGH)

Arrival

Time 2026-04-23 23:40
Airport Reykjavík Domestic Airport (BIRK)
Time Latitude Longitude Altitude Speed Heading
2026-04-23 22:22 65.56785 -34.70558 31262 ft 295 kts 87°
2026-04-23 22:23 65.56740 -34.65588 31259 ft 296 kts 87°
2026-04-23 22:23 65.56692 -34.60616 31263 ft 296 kts 87°
2026-04-23 22:23 65.56500 -34.55661 31257 ft 299 kts 95°
2026-04-23 22:23 65.56138 -34.50704 31262 ft 299 kts 95°
2026-04-23 22:24 65.55809 -34.45753 31261 ft 299 kts 94°
2026-04-23 22:24 65.55480 -34.40816 31263 ft 299 kts 95°
2026-04-23 22:24 65.55136 -34.35865 31260 ft 298 kts 95°
2026-04-23 22:24 65.54792 -34.30930 31263 ft 298 kts 95°
2026-04-23 22:25 65.54450 -34.26001 31265 ft 298 kts 95°
2026-04-23 22:25 65.54106 -34.21071 31265 ft 298 kts 95°
2026-04-23 22:25 65.53760 -34.16151 31269 ft 297 kts 95°
2026-04-23 22:25 65.53412 -34.11220 31269 ft 297 kts 95°
2026-04-23 22:26 65.53063 -34.06307 31264 ft 297 kts 95°
2026-04-23 22:26 65.52717 -34.01447 31266 ft 297 kts 95°
2026-04-23 22:26 65.52365 -33.96533 31270 ft 297 kts 95°
2026-04-23 22:26 65.52013 -33.91643 31271 ft 296 kts 95°
2026-04-23 22:27 65.51660 -33.86750 31275 ft 297 kts 95°
2026-04-23 22:27 65.51303 -33.81845 31271 ft 296 kts 95°
2026-04-23 22:27 65.50947 -33.76960 31273 ft 296 kts 95°
2026-04-23 22:27 65.50589 -33.72070 31276 ft 296 kts 95°
2026-04-23 22:28 65.50230 -33.67184 31272 ft 296 kts 95°
2026-04-23 22:28 65.49869 -33.62299 31277 ft 296 kts 95°
2026-04-23 22:28 65.49507 -33.57427 31275 ft 295 kts 95°
2026-04-23 22:28 65.49144 -33.52564 31273 ft 295 kts 95°
2026-04-23 22:29 65.48780 -33.47696 31275 ft 295 kts 95°
2026-04-23 22:29 65.48414 -33.42843 31280 ft 295 kts 95°
2026-04-23 22:29 65.48046 -33.37981 31280 ft 295 kts 95°
2026-04-23 22:29 65.47683 -33.33192 31280 ft 295 kts 95°
2026-04-23 22:30 65.47312 -33.28334 31279 ft 294 kts 95°
2026-04-23 22:30 65.46941 -33.23492 31277 ft 294 kts 95°
2026-04-23 22:30 65.46569 -33.18659 31281 ft 294 kts 95°
2026-04-23 22:30 65.46195 -33.13822 31279 ft 294 kts 95°
2026-04-23 22:31 65.45821 -33.09001 31279 ft 294 kts 95°
2026-04-23 22:31 65.45444 -33.04175 31280 ft 293 kts 95°
2026-04-23 22:31 65.45066 -32.99352 31286 ft 293 kts 95°
2026-04-23 22:31 65.44687 -32.94534 31285 ft 293 kts 95°
2026-04-23 22:32 65.44306 -32.89724 31281 ft 293 kts 95°
2026-04-23 22:32 65.43923 -32.84913 31286 ft 292 kts 95°
2026-04-23 22:32 65.43541 -32.80114 31285 ft 292 kts 95°
2026-04-23 22:32 65.43155 -32.75305 31285 ft 292 kts 95°
2026-04-23 22:33 65.42770 -32.70518 31281 ft 292 kts 95°
2026-04-23 22:33 65.42383 -32.65729 31284 ft 291 kts 95°
2026-04-23 22:33 65.41995 -32.60953 31284 ft 291 kts 95°
2026-04-23 22:33 65.41607 -32.56190 31286 ft 291 kts 95°
2026-04-23 22:34 65.41221 -32.51477 31285 ft 291 kts 95°
2026-04-23 22:34 65.40830 -32.46716 31283 ft 290 kts 95°
2026-04-23 22:34 65.40437 -32.41957 31285 ft 290 kts 95°
2026-04-23 22:34 65.40044 -32.37206 31288 ft 290 kts 95°
2026-04-23 22:35 65.39649 -32.32455 31291 ft 290 kts 95°
2026-04-23 22:35 65.39254 -32.27724 31290 ft 290 kts 95°
2026-04-23 22:35 65.38856 -32.22985 31288 ft 289 kts 95°
2026-04-23 22:35 65.38458 -32.18257 31291 ft 289 kts 95°
2026-04-23 22:36 65.38060 -32.13540 31287 ft 289 kts 95°
2026-04-23 22:36 65.37660 -32.08815 31292 ft 288 kts 95°
2026-04-23 22:36 65.37259 -32.04109 31289 ft 288 kts 95°
2026-04-23 22:36 65.36857 -31.99406 31292 ft 288 kts 95°
2026-04-23 22:37 65.36454 -31.94709 31291 ft 287 kts 95°
2026-04-23 22:37 65.36051 -31.90019 31291 ft 287 kts 95°
2026-04-23 22:37 65.35645 -31.85334 31294 ft 287 kts 95°
2026-04-23 22:37 65.35239 -31.80654 31290 ft 287 kts 95°
2026-04-23 22:38 65.34833 -31.75990 31293 ft 286 kts 95°
2026-04-23 22:38 65.34429 -31.71375 31291 ft 286 kts 95°
2026-04-23 22:38 65.34015 -31.66663 31296 ft 286 kts 95°
2026-04-23 22:38 65.33605 -31.62003 31295 ft 285 kts 95°
2026-04-23 22:39 65.33199 -31.57423 31292 ft 285 kts 95°
2026-04-23 22:39 65.32787 -31.52785 31293 ft 285 kts 95°
2026-04-23 22:39 65.32375 -31.48160 31294 ft 284 kts 95°
2026-04-23 22:39 65.31960 -31.43525 31296 ft 284 kts 95°
2026-04-23 22:40 65.31546 -31.38915 31297 ft 284 kts 95°
2026-04-23 22:40 65.31129 -31.34304 31299 ft 283 kts 95°
2026-04-23 22:40 65.30294 -31.25101 31296 ft 283 kts 95°
2026-04-23 22:41 65.30016 -31.22048 31300 ft 283 kts 95°
2026-04-23 22:41 65.29594 -31.17441 31302 ft 283 kts 96°
2026-04-23 22:41 65.29173 -31.12848 31302 ft 283 kts 96°
2026-04-23 22:41 65.28749 -31.08254 31298 ft 283 kts 96°
2026-04-23 22:42 65.28324 -31.03658 31299 ft 283 kts 96°
2026-04-23 22:42 65.27898 -30.99064 31303 ft 283 kts 96°
2026-04-23 22:42 65.27471 -30.94477 31304 ft 283 kts 96°
2026-04-23 22:42 65.27042 -30.89893 31301 ft 283 kts 96°
2026-04-23 22:43 65.26612 -30.85306 31300 ft 283 kts 96°
2026-04-23 22:43 65.26179 -30.80710 31302 ft 283 kts 96°
2026-04-23 22:43 65.25746 -30.76126 31304 ft 283 kts 96°
2026-04-23 22:43 65.25312 -30.71546 31303 ft 283 kts 96°
2026-04-23 22:44 65.24876 -30.66959 31303 ft 283 kts 96°
2026-04-23 22:44 65.24449 -30.62494 31305 ft 283 kts 96°
2026-04-23 22:44 65.24012 -30.57921 31307 ft 283 kts 96°
2026-04-23 22:44 65.23870 -30.56433 31305 ft 283 kts 96°
2026-04-23 22:45 65.23442 -30.51986 31304 ft 283 kts 97°
2026-04-23 22:45 65.23001 -30.47416 31302 ft 283 kts 97°
2026-04-23 22:45 65.22558 -30.42845 31306 ft 283 kts 97°
2026-04-23 22:45 65.22113 -30.38260 31304 ft 283 kts 97°
2026-04-23 22:46 65.21668 -30.33696 31307 ft 283 kts 97°
2026-04-23 22:46 65.21221 -30.29128 31310 ft 283 kts 97°
2026-04-23 22:46 65.20771 -30.24547 31312 ft 283 kts 97°
2026-04-23 22:46 65.20321 -30.19975 31309 ft 283 kts 97°
2026-04-23 22:47 65.19869 -30.15403 31307 ft 283 kts 97°
2026-04-23 22:47 65.19416 -30.10833 31308 ft 283 kts 97°
2026-04-23 22:47 65.18961 -30.06261 31315 ft 283 kts 98°
2026-04-23 22:47 65.18506 -30.01704 31309 ft 283 kts 98°
2026-04-23 22:48 65.18076 -29.97130 31312 ft 283 kts 97°
2026-04-23 22:48 65.17653 -29.92551 31314 ft 283 kts 97°
2026-04-23 22:48 65.17225 -29.87987 31313 ft 283 kts 97°
2026-04-23 22:48 65.16798 -29.83398 31315 ft 283 kts 97°
2026-04-23 22:49 65.16373 -29.78840 31315 ft 283 kts 97°
2026-04-23 22:49 65.15947 -29.74282 31307 ft 283 kts 97°
2026-04-23 22:49 65.15517 -29.69717 31315 ft 283 kts 97°
2026-04-23 22:49 65.15087 -29.65154 31314 ft 283 kts 97°
2026-04-23 22:50 65.14655 -29.60596 31318 ft 283 kts 97°
2026-04-23 22:50 65.14221 -29.56027 31320 ft 282 kts 98°
2026-04-23 22:50 65.13787 -29.51474 31313 ft 283 kts 98°
2026-04-23 22:50 65.13352 -29.46930 31319 ft 283 kts 98°
2026-04-23 22:51 65.12915 -29.42385 31322 ft 282 kts 98°
2026-04-23 22:51 65.12476 -29.37830 31314 ft 282 kts 98°
2026-04-23 22:51 65.12037 -29.33287 31323 ft 282 kts 98°
2026-04-23 22:51 65.11597 -29.28753 31314 ft 282 kts 98°
2026-04-23 22:52 65.11155 -29.24217 31321 ft 282 kts 98°
2026-04-23 22:52 65.10712 -29.19675 31319 ft 282 kts 98°
2026-04-23 22:52 65.10269 -29.15156 31324 ft 282 kts 98°
2026-04-23 22:52 65.09821 -29.10608 31325 ft 282 kts 98°
2026-04-23 22:53 65.09376 -29.06076 31322 ft 282 kts 98°
2026-04-23 22:53 65.08928 -29.01554 31325 ft 282 kts 98°
2026-04-23 22:53 65.08479 -28.97033 31326 ft 282 kts 98°
2026-04-23 22:53 65.08035 -28.92573 31326 ft 282 kts 98°
2026-04-23 22:54 65.07583 -28.88056 31324 ft 281 kts 98°
2026-04-23 22:54 65.07131 -28.83544 31324 ft 281 kts 99°
2026-04-23 22:54 65.06676 -28.79026 31327 ft 281 kts 98°
2026-04-23 22:54 65.06222 -28.74527 31328 ft 281 kts 99°
2026-04-23 22:55 65.05766 -28.70019 31326 ft 281 kts 99°
2026-04-23 22:55 65.05308 -28.65516 31327 ft 281 kts 99°
2026-04-23 22:55 65.04850 -28.61018 31326 ft 281 kts 99°
2026-04-23 22:55 65.04388 -28.56502 31330 ft 281 kts 99°
2026-04-23 22:56 65.03926 -28.52006 31329 ft 281 kts 99°
2026-04-23 22:56 65.03463 -28.47512 31328 ft 281 kts 99°
2026-04-23 22:56 65.03000 -28.43027 31332 ft 281 kts 99°
2026-04-23 22:56 65.02534 -28.38532 31330 ft 281 kts 99°
2026-04-23 22:57 65.02067 -28.34041 31327 ft 281 kts 99°
2026-04-23 22:57 65.01599 -28.29564 31332 ft 281 kts 99°
2026-04-23 22:57 65.01128 -28.25069 31334 ft 281 kts 99°
2026-04-23 22:57 65.00658 -28.20591 31332 ft 281 kts 99°
2026-04-23 22:58 65.00186 -28.16117 31332 ft 281 kts 100°
2026-04-23 22:58 64.99718 -28.11693 31330 ft 281 kts 100°
2026-04-23 22:58 64.99244 -28.07221 31337 ft 281 kts 100°
2026-04-23 22:58 64.98766 -28.02735 31334 ft 280 kts 100°
2026-04-23 22:59 64.98289 -27.98268 31337 ft 280 kts 100°
2026-04-23 22:59 64.97811 -27.93801 31340 ft 280 kts 100°
2026-04-23 22:59 64.97332 -27.89346 31339 ft 280 kts 100°
2026-04-23 22:59 64.96850 -27.84871 31338 ft 280 kts 100°
2026-04-23 23:00 64.96367 -27.80403 31336 ft 280 kts 101°
2026-04-23 23:00 64.95883 -27.75937 31339 ft 280 kts 101°
2026-04-23 23:00 64.95399 -27.71486 31339 ft 280 kts 101°
2026-04-23 23:00 64.94912 -27.67028 31338 ft 280 kts 101°
2026-04-23 23:01 64.94431 -27.62626 31338 ft 280 kts 101°
2026-04-23 23:01 64.93943 -27.58181 31339 ft 280 kts 101°
2026-04-23 23:01 64.93453 -27.53726 31343 ft 280 kts 101°
2026-04-23 23:01 64.92963 -27.49281 31340 ft 280 kts 101°
2026-04-23 23:02 64.92472 -27.44842 31338 ft 280 kts 101°
2026-04-23 23:02 64.91979 -27.40409 31337 ft 280 kts 101°
2026-04-23 23:02 64.91484 -27.35966 31339 ft 280 kts 101°
2026-04-23 23:02 64.90988 -27.31527 31342 ft 280 kts 101°
2026-04-23 23:03 64.90492 -27.27098 31342 ft 280 kts 102°
2026-04-23 23:03 64.89993 -27.22664 31343 ft 279 kts 102°
2026-04-23 23:03 64.89494 -27.18234 31340 ft 279 kts 102°
2026-04-23 23:03 64.88996 -27.13823 31345 ft 279 kts 102°
2026-04-23 23:04 64.88494 -27.09404 31342 ft 279 kts 102°
2026-04-23 23:04 64.87999 -27.05050 31343 ft 279 kts 102°
2026-04-23 23:04 64.87495 -27.00632 31345 ft 279 kts 102°
2026-04-23 23:04 64.86991 -26.96231 31349 ft 279 kts 102°
2026-04-23 23:05 64.86485 -26.91825 31342 ft 277 kts 103°
2026-04-23 23:05 64.85978 -26.87449 31345 ft 277 kts 102°
2026-04-23 23:05 64.85474 -26.83055 31350 ft 278 kts 102°
2026-04-23 23:05 64.84964 -26.78656 31351 ft 278 kts 102°
2026-04-23 23:06 64.84455 -26.74278 31353 ft 279 kts 102°
2026-04-23 23:06 64.83942 -26.69877 31356 ft 279 kts 102°
2026-04-23 23:06 64.83435 -26.65545 31357 ft 278 kts 102°
2026-04-23 23:06 64.82921 -26.61160 31357 ft 278 kts 102°
2026-04-23 23:07 64.82406 -26.56783 31355 ft 278 kts 102°
2026-04-23 23:07 64.81888 -26.52385 31357 ft 278 kts 102°
2026-04-23 23:07 64.81371 -26.48010 31358 ft 278 kts 102°
2026-04-23 23:07 64.80853 -26.43647 31357 ft 278 kts 102°
2026-04-23 23:08 64.80334 -26.39277 31356 ft 278 kts 102°
2026-04-23 23:08 64.79812 -26.34906 31355 ft 278 kts 102°
2026-04-23 23:08 64.79290 -26.30542 31356 ft 278 kts 102°
2026-04-23 23:08 64.78767 -26.26185 31355 ft 278 kts 102°
2026-04-23 23:09 64.78242 -26.21819 31360 ft 278 kts 102°
2026-04-23 23:09 64.77725 -26.17530 31359 ft 278 kts 102°
2026-04-23 23:09 64.77197 -26.13165 31359 ft 277 kts 102°
2026-04-23 23:09 64.76664 -26.08753 31357 ft 277 kts 102°
2026-04-23 23:10 64.76134 -26.04402 31365 ft 277 kts 102°
2026-04-23 23:10 64.75606 -26.00069 31360 ft 277 kts 102°
2026-04-23 23:10 64.75074 -25.95718 31361 ft 277 kts 102°
2026-04-23 23:10 64.74545 -25.91404 31363 ft 277 kts 102°
2026-04-23 23:11 64.74012 -25.87057 31361 ft 277 kts 102°
2026-04-23 23:11 64.73477 -25.82724 31362 ft 277 kts 102°
2026-04-23 23:11 64.72943 -25.78401 31363 ft 276 kts 102°
2026-04-23 23:11 64.72406 -25.74070 31361 ft 276 kts 102°
2026-04-23 23:12 64.71870 -25.69753 31370 ft 276 kts 102°
2026-04-23 23:12 64.71332 -25.65440 31363 ft 276 kts 102°
2026-04-23 23:12 64.70793 -25.61118 31370 ft 276 kts 102°
2026-04-23 23:12 64.70253 -25.56812 31364 ft 276 kts 102°
2026-04-23 23:13 64.69712 -25.52509 31367 ft 276 kts 102°
2026-04-23 23:13 64.69169 -25.48198 31377 ft 275 kts 102°
2026-04-23 23:13 64.68627 -25.43909 31371 ft 275 kts 102°
2026-04-23 23:13 64.68085 -25.39632 31372 ft 275 kts 102°
2026-04-23 23:14 64.67546 -25.35399 31370 ft 275 kts 102°
2026-04-23 23:14 64.66992 -25.31050 31369 ft 275 kts 102°
2026-04-23 23:14 64.66446 -25.26775 31371 ft 275 kts 102°
2026-04-23 23:14 64.65899 -25.22509 31372 ft 274 kts 102°
2026-04-23 23:15 64.65350 -25.18232 31370 ft 274 kts 102°
2026-04-23 23:15 64.64799 -25.13956 31375 ft 274 kts 102°
2026-04-23 23:15 64.64251 -25.09712 31374 ft 274 kts 102°
2026-04-23 23:15 64.63699 -25.05447 31376 ft 274 kts 102°
2026-04-23 23:16 64.63148 -25.01207 31371 ft 273 kts 102°
2026-04-23 23:16 64.62596 -24.96964 31373 ft 273 kts 102°
2026-04-23 23:16 64.62049 -24.92781 31490 ft 273 kts 97°
2026-04-23 23:16 64.61488 -24.88490 31377 ft 274 kts 97°
2026-04-23 23:17 64.60931 -24.84226 31376 ft 275 kts 97°
2026-04-23 23:17 64.60370 -24.79963 31375 ft 276 kts 98°
2026-04-23 23:17 64.59806 -24.75688 31377 ft 276 kts 98°
2026-04-23 23:17 64.59247 -24.71465 31369 ft 276 kts 98°
2026-04-23 23:18 64.58683 -24.67200 31370 ft 276 kts 98°
2026-04-23 23:18 64.58112 -24.62901 31373 ft 276 kts 98°
2026-04-23 23:18 64.57544 -24.58638 31371 ft 277 kts 98°
2026-04-23 23:18 64.56972 -24.54351 31378 ft 277 kts 98°
2026-04-23 23:19 64.56401 -24.50089 31384 ft 277 kts 98°
2026-04-23 23:19 64.55940 -24.45786 31382 ft 271 kts 91°
2026-04-23 23:19 64.55647 -24.41455 31376 ft 271 kts 91°
2026-04-23 23:19 64.55309 -24.37327 31006 ft 254 kts 92°
2026-04-23 23:20 64.54969 -24.33255 29884 ft 259 kts 92°
2026-04-23 23:20 64.54634 -24.29100 28710 ft 262 kts 92°
2026-04-23 23:20 64.54294 -24.24920 27530 ft 265 kts 92°
2026-04-23 23:20 64.53946 -24.20690 26316 ft 268 kts 93°
2026-04-23 23:21 64.53598 -24.16468 25100 ft 271 kts 93°
2026-04-23 23:21 64.53241 -24.12145 23818 ft 274 kts 94°
2026-04-23 23:21 64.52879 -24.07778 22238 ft 279 kts 95°
2026-04-23 23:21 64.52632 -24.04825 22014 ft 273 kts 95°
2026-04-23 23:22 64.52145 -23.99006 21706 ft 282 kts 95°
2026-04-23 23:22 64.51893 -23.95950 21464 ft 287 kts 96°
2026-04-23 23:22 64.51380 -23.89886 20961 ft 291 kts 96°
2026-04-23 23:22 64.51119 -23.86815 20704 ft 292 kts 96°
2026-04-23 23:23 64.50593 -23.80619 20186 ft 294 kts 97°
2026-04-23 23:23 64.50323 -23.77447 19924 ft 296 kts 97°
2026-04-23 23:23 64.49927 -23.72816 19541 ft 298 kts 97°
2026-04-23 23:23 64.49519 -23.68077 19148 ft 299 kts 98°
2026-04-23 23:24 64.49108 -23.63314 18750 ft 301 kts 98°
2026-04-23 23:24 64.48695 -23.58543 18319 ft 303 kts 98°
2026-04-23 23:24 64.48276 -23.53739 17921 ft 304 kts 98°
2026-04-23 23:24 64.47856 -23.48915 17516 ft 307 kts 99°
2026-04-23 23:25 64.47428 -23.44040 17111 ft 308 kts 99°
2026-04-23 23:25 64.46999 -23.39166 16703 ft 310 kts 99°
2026-04-23 23:25 64.46566 -23.34266 16294 ft 312 kts 99°
2026-04-23 23:25 64.46126 -23.29313 15882 ft 314 kts 99°
2026-04-23 23:26 64.45685 -23.24355 15465 ft 315 kts 100°
2026-04-23 23:26 64.45238 -23.19362 15057 ft 316 kts 100°
2026-04-23 23:26 64.44788 -23.14362 14637 ft 315 kts 100°
2026-04-23 23:26 64.44342 -23.09417 14223 ft 315 kts 101°
2026-04-23 23:27 64.43901 -23.04543 13790 ft 313 kts 101°
2026-04-23 23:27 64.43455 -22.99632 13375 ft 311 kts 101°
2026-04-23 23:27 64.43003 -22.94682 12962 ft 309 kts 101°
2026-04-23 23:27 64.42563 -22.89879 12562 ft 308 kts 101°
2026-04-23 23:28 64.42118 -22.85036 12158 ft 306 kts 101°
2026-04-23 23:28 64.41675 -22.80236 11754 ft 304 kts 102°
2026-04-23 23:28 64.41232 -22.75464 11355 ft 303 kts 102°
2026-04-23 23:28 64.40789 -22.70699 10956 ft 302 kts 102°
2026-04-23 23:29 64.40345 -22.65939 10388 ft 301 kts 102°
2026-04-23 23:29 64.39899 -22.61192 9764 ft 297 kts 102°
2026-04-23 23:29 64.39462 -22.56545 9354 ft 295 kts 102°
2026-04-23 23:29 64.39024 -22.51917 8958 ft 295 kts 103°
2026-04-23 23:30 64.38586 -22.47290 8573 ft 294 kts 103°
2026-04-23 23:30 64.38147 -22.42680 8183 ft 294 kts 103°
2026-04-23 23:30 64.37706 -22.38075 7796 ft 293 kts 103°
2026-04-23 23:30 64.37269 -22.33506 7414 ft 291 kts 103°
2026-04-23 23:31 64.36826 -22.28915 7028 ft 291 kts 103°
2026-04-23 23:31 64.36386 -22.24359 6639 ft 289 kts 103°
2026-04-23 23:31 64.35968 -22.20030 6263 ft 264 kts 103°
2026-04-23 23:31 64.35581 -22.16040 5922 ft 246 kts 104°
2026-04-23 23:32 64.35207 -22.12229 5604 ft 240 kts 104°
2026-04-23 23:32 64.34841 -22.08493 5293 ft 237 kts 104°
2026-04-23 23:32 64.34484 -22.04847 4981 ft 235 kts 104°
2026-04-23 23:32 64.34121 -22.01147 4663 ft 232 kts 104°
2026-04-23 23:33 64.33765 -21.97549 4364 ft 229 kts 104°
2026-04-23 23:33 64.33178 -21.94274 4128 ft 223 kts 129°
2026-04-23 23:33 64.31990 -21.92204 3792 ft 208 kts 161°
2026-04-23 23:33 64.30598 -21.92085 3691 ft 201 kts 198°
2026-04-23 23:34 64.29266 -21.93201 3703 ft 208 kts 200°
2026-04-23 23:34 64.27920 -21.94162 3181 ft 198 kts 198°
2026-04-23 23:34 64.26623 -21.95052 2997 ft 193 kts 197°
2026-04-23 23:34 64.25311 -21.95792 2860 ft 197 kts 192°
2026-04-23 23:35 64.23960 -21.95825 2553 ft 189 kts 178°
2026-04-23 23:35 64.22704 -21.95623 2254 ft 173 kts 179°
2026-04-23 23:35 64.21546 -21.95394 1976 ft 161 kts 177°
2026-04-23 23:35 64.20471 -21.95193 1724 ft 150 kts 179°
2026-04-23 23:36 64.19519 -21.95008 1488 ft 123 kts 177°
2026-04-23 23:36 64.18774 -21.94871 1289 ft 97 kts 180°
2026-04-23 23:36 64.18608 -21.94844 1249 ft 94 kts 179°
2026-04-23 23:37 64.18452 -21.94814 1214 ft 91 kts 179°
2026-04-23 23:37 64.17824 -21.94696 1062 ft 89 kts 180°
2026-04-23 23:38 64.17224 -21.94570 920 ft 88 kts 178°
2026-04-23 23:38 64.16617 -21.94463 776 ft 86 kts 179°
2026-04-23 23:38 64.16018 -21.94345 637 ft 87 kts 179°
2026-04-23 23:38 64.15421 -21.94237 538 ft 86 kts 180°
2026-04-23 23:39 64.14815 -21.94130 373 ft 89 kts 176°
2026-04-23 23:39 64.14199 -21.94021 216 ft 86 kts 178°
2026-04-23 23:39 64.13604 -21.93886 52 ft 88 kts 179°
2026-04-23 23:39 64.13078 -21.93788 35 ft 62 kts 174°
2026-04-23 23:40 64.12883 -21.93756 37 ft 16 kts 176°
2026-04-23 23:40 64.12853 -21.93684 36 ft 5 kts 109°
2026-04-23 23:40 64.12846 -21.93650 36 ft 0 kts 121°
2026-04-23 23:40 64.12845 -21.93646 36 ft 1 kts 121°
2026-04-23 23:41 64.12832 -21.93580 37 ft 8 kts 95°
2026-04-23 23:41 64.12879 -21.93507 37 ft 0 kts 354°
2026-04-23 23:42 64.12887 -21.93507 37 ft 5 kts 358°
2026-04-23 23:42 64.12958 -21.93568 35 ft 13 kts 358°
2026-04-23 23:42 64.13007 -21.93564 34 ft 0 kts
2026-04-23 23:42 64.13012 -21.93563 34 ft 5 kts
2026-04-23 23:43 64.13068 -21.93549 33 ft 11 kts 14°
2026-04-23 23:43 64.13159 -21.93558 32 ft 13 kts 356°
2026-04-23 23:43 64.13220 -21.93471 33 ft 10 kts 47°
2026-04-23 23:43 64.13259 -21.93348 32 ft 8 kts 192°
2026-04-23 23:44 64.13243 -21.93367 32 ft 2 kts 133°
2026-04-23 23:44 64.13209 -21.93292 31 ft 9 kts 154°
2026-04-23 23:44 64.13187 -21.93313 32 ft 0 kts 275°